Regional Weather Roundup
Issued by NWS

Home | Current Version | Previous Version | Text Only | Print | Product List | Glossary Off
Versions: 1 2 3 4 5 6 7 8 9 10 11 12 13 14 15 16 17 18 19 20 21 22 23 24 25 26 27 28 29 30 31 32 33 34 35 36 37 38 39 40 41 42 43 44 45 46 47 48 49 50

000
ASUS45 KBOI 021410
RWRID

IDAHO REGIONAL WEATHER ROUNDUP
NATIONAL WEATHER SERVICE BOISE ID
800 AM MDT WED SEP 02 2015

NOTE: "FAIR" INDICATES FEW OR NO CLOUDS BELOW 12000 FEET
WITH NO SIGNIFICANT WEATHER AND/OR OBSTRUCTIONS TO VISIBILITY

IDZ012-014-021500-
SOUTHWEST IDAHO


CITY           SKY/WX    TMP DP  RH WIND       PRES   REMARKS
BOISE          CLOUDY    63  39  41 VRB6      29.87R
CALDWELL       CLOUDY    55  37  50 E6        29.87R
MOUNTAIN HOME  PTCLDY    58  37  44 CALM      29.88R
$$

IDZ016-017-021500-
SOUTHCENTRAL IDAHO


CITY           SKY/WX    TMP DP  RH WIND       PRES   REMARKS
BURLEY         CLEAR     60  39  45 VRB5      29.94R
JEROME         CLEAR     64  31  28 S6        29.94R
TWIN FALLS     CLEAR     68  27  21 S10       29.93R
$$

IDZ019>023-021500-
SOUTHEAST IDAHO


CITY           SKY/WX    TMP DP  RH WIND       PRES   REMARKS
IDAHO FALLS    MOSUNNY   62  41  46 SW9       29.97R
POCATELLO      SUNNY     74  33  22 S13       29.96R
REXBURG        MOSUNNY   65  38  36 S12       29.96R
$$

IDZ006-010-011-018-031-032-021500-
CENTRAL IDAHO MOUNTAINS


CITY           SKY/WX    TMP DP  RH WIND       PRES   REMARKS
MCCALL         CLOUDY    49  37  63 CALM      29.91R
HAILEY         PTCLDY    48  36  61 NW8       30.01R
STANLEY          N/A     38  27  64 CALM      30.02R
SALMON         PTCLDY    46  34  61 CALM      29.85R
CHALLIS        PTCLDY    51  29  42 CALM      29.92R
$$

IDZ002-004-006-007-026-021500-
NORTHERN IDAHO


CITY           SKY/WX    TMP DP  RH WIND       PRES   REMARKS
LEWISTON       CLOUDY    65  42  43 S6        29.81R
LOWELL           N/A     55  50  83 CALM      29.85R
COEUR D`ALENE  CLOUDY    61  46  59 S14       29.79R
MULLAN PASS    CLOUDY    45  38  76 VRB7      29.89R
$$


USA.gov is the U.S. government's official web portal to all federal, state and local government web resources and services.